This demonstration page uses our WeatherBlox Daily Observations layout. Learn more.

Left ArrowRight Arrow

36.17497, -115.13722

Hourly Observations for January 24, 2016

Temp ( °F °C ) Dew Point ( °F °C ) Humidity (%) Winds ( mph kmh ) Pressure ( in mb ) Visibility ( mi km ) Precip ( " mm )
12:53 am 00:53 Mostly Clear 50 10 32 undefined 50 50 NW 22 35 29.93 1014 10 16 N/A
1:53 am 01:53 Clear 49 9.4 32 undefined 52 52 NNW 23 37 29.94 1014 10 16 N/A
2:53 am 02:53 Clear 48 8.9 32 undefined 54 54 NNW 23 37 29.95 1014 10 16 N/A
3:53 am 03:53 Clear 47 8.3 32 undefined 56 56 NNW 15 24 29.97 1015 10 16 N/A
4:53 am 04:53 Clear 46 7.8 32 undefined 58 58 NNW 22 35 29.98 1015 10 16 N/A
5:53 am 05:53 Clear 47 8.3 31 -0.6 54 54 NNW 18 30 30.01 1016 10 16 N/A
6:53 am 06:53 Sunny 46 7.8 31 -0.6 56 56 NW 20 31 30.03 1017 10 16 N/A
7:53 am 07:53 Sunny 50 10 30 -1.1 46 46 N 14 22 30.07 1018 10 16 N/A
8:53 am 08:53 Sunny 52 11.1 29 -1.7 41 41 NNW 21 33 30.08 1019 10 16 N/A
9:53 am 09:53 Sunny 55 12.8 27 -2.8 34 34 NNW 20 31 30.09 1019 10 16 N/A
10:53 am 10:53 Sunny 58 14.4 25 -3.9 28 28 N 16 26 30.08 1019 10 16 N/A
11:53 am 11:53 Sunny 59 15 23 -5 25 25 NNW 16 26 30.07 1018 10 16 N/A
12:53 pm 12:53 Sunny 61 16.1 21 -6.1 21 21 NNW 20 31 30.06 1018 10 16 N/A
1:53 pm 13:53 Sunny 61 16.1 20 -6.7 20 20 NW 21 33 30.04 1017 10 16 N/A
2:53 pm 14:53 Sunny 61 16.1 20 -6.7 20 20 N 17 28 30.04 1017 10 16 N/A
3:53 pm 15:53 Sunny 60 15.6 21 -6.1 22 22 NNW 9 15 30.04 1017 10 16 N/A
4:53 pm 16:53 Sunny 58 14.4 20 -6.7 23 23 NNW 9 15 30.05 1018 10 16 N/A
5:53 pm 17:53 Clear 56 13.3 20 -6.7 24 24 NNW 6 9 30.05 1018 10 16 N/A
6:53 pm 18:53 Clear 54 12.2 22 -5.6 29 29 NE 6 9 30.08 1019 10 16 N/A
7:53 pm 19:53 Clear 54 12.2 22 -5.6 29 29 N 5 7 30.10 1019 10 16 N/A
8:53 pm 20:53 Partly Cloudy 52 11.1 23 -5 32 32 NW 13 20 30.11 1020 10 16 N/A
9:53 pm 21:53 Mostly Cloudy 52 11.1 24 -4.4 34 34 N 7 11 30.11 1020 10 16 N/A
10:53 pm 22:53 Clear 49 9.4 24 -4.4 38 38 NNE 10 17 30.11 1020 10 16 N/A
11:53 pm 23:53 Clear 48 8.9 25 -3.9 41 41 N 8 13 30.11 1020 10 16 N/A

Powered by AerisWeather